Погода в Дизфуле

Иран     32°22′53″N   48°24′26″E
темп.,
°C
ветер,
м/с
пор.,
м/с
влажн.,
%
обл.,
%
осадки,
мм/ч
давл.,
гПа
погр.,
м
13 апреля, вт
вт1301:30+23с33250 0.0 101312
04:30+23ссв33260 0.0 101214
07:30+23ссв44295 0.0 101226
10:30+30всв221735 0.0 1013547
13:30+33ююв34124 0.0 10113138
16:30+34юз34123 0.0 10094243
19:30+30з58185 0.1 1010117
22:30+25юв711382 0.4 1013310
14 апреля, ср
ср1401:30+23в44410 0.0 101357
04:30+22св224481 0.0 101312
07:30+22в22462 0.0 101315
10:30+27ююв23300 0.0 1014978
13:30+31ююз44161 0.0 10121626
16:30+32з56156 0.0 10103068
19:30+27з59125 0.0 1011142
22:30+21зсз22150 0.0 101312
15 апреля, чт
чт1501:30+19ю11210 0.0 101211
04:30+18вюв22200 0.0 101211
07:30+18вюв22220 0.0 101314
10:30+25юв34130 0.0 1014616
13:30+29ююв44105 0.0 10131212
16:30+30ююз33836 0.0 10101646
19:30+26зюз22125 0.0 101011
22:30
16 апреля, пт
пт1601:30+21зюз11180 0.0 101011
04:30+20св22160 0.0 101011
07:30+20зсз11220 0.0 101211
10:30+28зсз11110 0.0 1012601
13:30+32з5595 0.0 10112301
16:30+33зсз7793 0.0 10103239
19:30+29зсз441314 0.0 100935
22:30+25ссз441847 0.0 101034
17 апреля, сб
сб1701:30+23с331974 0.0 101015
04:30+22с332096 0.0 101012
07:30+22ссв3320100 0.0 101114
10:30+29ссз221399 0.0 1012501
13:30+33з33999 0.0 10102372
16:30+34з438100 0.0 10092742
19:30+30зюз331381 0.0 100911
22:30+27всв2214100 0.0 101111